Tracking 19847 objects as of 16-Sep-2019
HD Live streaming from Space Station
objects crossing your sky now

NAVSTAR 77 (USA 289)

Track NAVSTAR 77 (USA 289) now!
NAVSTAR 77 (USA 289) is classified as:


NORAD ID: 43873
Int'l Code: 2018-109A
Perigee: 20,174.6 km
Apogee: 20,204.2 km
Inclination: 55.0 °
Period: 718.0 minutes
Semi major axis: 26560 km
RCS: Unknown
Launch date: December 23, 2018
Source: United States (US)
Launch site: AIR FORCE EASTERN TEST RANGE (AFETR)
aabbcc
Your satellite tracking list
Your tracking list is empty




NASA's NSSDC Master Catalog

Two Line Element Set (TLE):
1 43873U 18109A   19258.11308699 -.00000001  00000-0  00000+0 0  9997
2 43873  54.9993 189.6272 0005571 290.2287  69.7085  2.00563067  5547
Source of the keplerian elements: AFSPC